Notices

What's New in latest Release from April 7th, 2021:

- Updated Glossary, including Speed of Maximum Gust, and Total Hourly Precipitation

- Updated national and regional climate services offices contacts and prices information

- Addition of station inventory lists for 1981-2010, 1971-2000, and 1961-1990 Normals.

If you haven't already, please take our survey and provide feedback about our website: https://eccc.sondage-survey.ca/f/LanguageSelection.aspx?s=442ca660-fcf1-47c0-95a9-59707d6fd709

Hourly Data Report for November 25, 2017

VICTORIA UNIVERSITY CS
BRITISH COLUMBIA

48°27'25.200" N
123°18'16.600" W
60.10 m
1018598
71783
WYJ

Download Data

Hourly Data (November 2017)
Hourly Data Report for November 25, 2017
TIME
LST
Temp Definition
°C
Dew Point Definition
°C
Rel Hum Definition
%
Precip. Amount Definition
mm

Wind Dir Definition
10's deg

Wind Spd Definition
km/h
Visibility Definition
km
Stn Press Definition
kPa
Hmdx Definition


Wind Chill Definition


Weather Definition


00:00 7.1 6.8 98 0.0   0   100.92     LegendNANA
01:00 7.1 6.9 98 0.0   0   100.92     LegendNANA
02:00 6.8 6.6 98 0.0   0   100.90     LegendNANA
03:00 6.4 6.2 99 0.0 1 1   100.90     LegendNANA
04:00 7.1 6.9 99 0.0 7 2   100.84     LegendNANA
05:00 6.6 6.4 98 0.0   0   100.83     LegendNANA
06:00 6.0 5.8 98 0.0 9 2   100.82     LegendNANA
07:00 7.0 6.8 99 0.0 8 2   100.83     LegendNANA
08:00 7.0 6.7 98 0.0 7 2   100.80     LegendNANA
09:00 7.9 6.7 92 0.0 9 3   100.73     LegendNANA
10:00 8.2 7.6 96 0.0 13 2   100.71     LegendNANA
11:00 8.4 7.5 94 0.0   0   100.65     LegendNANA
12:00 9.0 7.3 89 0.0 11 2   100.56     LegendNANA
13:00 8.7 6.3 85 0.0 5 1   100.39     LegendNANA
14:00 8.8 5.6 80 0.0 36 9   100.28     LegendNANA
15:00 8.6 6.1 84 0.0 36 11   100.22     LegendNANA
16:00 8.8 6.1 84 0.0 1 10   100.07     LegendNANA
17:00 8.8 6.0 82 0.0 5 6   99.91     LegendNANA
18:00 9.4 5.6 77 0.0 12 4   99.84     LegendNANA
19:00 9.4 5.7 78 0.0 10 5   99.71     LegendNANA
20:00 9.1 5.7 79 0.0 9 11   99.65     LegendNANA
21:00 8.4 7.0 91 0.2 7 9   99.44     LegendNANA
22:00 8.4 7.7 95 0.5 11 3   99.37     LegendNANA
23:00 9.1 8.2 94 0.0 14 4   99.18     LegendNANA

Notes on Data Quality.

Legend

  • E = Estimated
  • M = Missing
  • NA = Not Available*
  • [empty] = Indicates an unobserved value
Date modified: